Regional Weather Roundup
Issued by NWS

Home | Current Version | Previous Version | Graphics & Text | Print | Product List | Glossary On
Versions: 1 2 3 4 5 6 7 8 9 10 11 12 13 14 15 16 17 18 19 20 21 22 23 24 25 26 27
000
ASUS45 KTFX 191510
RWRMT
MONTANA REGIONAL WEATHER ROUNDUP
NATIONAL WEATHER SERVICE GREAT FALLS MT
800 AM MST FRI JAN 19 2018

NOTE: "FAIR" INDICATES FEW OR NO CLOUDS BELOW 12000 FEET WITH NO
SIGNIFICANT WEATHER AND/OR OBSTRUCTIONS TO VISIBILITY.

MTZ001>007-043-191600-
WEST OF THE DIVIDE

CITY           SKY/WX    TMP DP  RH WIND       PRES   REMARKS
KALISPELL      CLOUDY    27  27 100 S6        29.73S WCI  20
MISSOULA       FOG       32  31  96 NE3       29.77S VSB 1/2
BUTTE          LGT SNOW  30  27  88 CALM      29.69S FOG
MULLAN PASS    CLOUDY    22  21  96 SW8       29.70S FOG     WCI  12
ANACONDA         N/A     30  30 100 CALM      29.72R
DEER LODGE       N/A     30  30 100 CALM      29.73F
EUREKA           N/A     37  27  65 MISG      29.72R
HAMILTON         N/A     30  30 100 CALM      29.76R
PLAINS           N/A     33  30  89 CALM      29.81R
RONAN            N/A     32  32 100 SE7       29.78R WCI  26
THOMPSON FALLS   N/A     32  31  96 CALM      29.86R
$$

MTZ008-052>055-191600-
SOUTHWEST MONTANA

CITY           SKY/WX    TMP DP  RH WIND       PRES   REMARKS
BOZEMAN        CLOUDY    33  32  96 W6        29.68R WCI  28
DILLON         MOCLDY    27  27 100 SW8       29.66R WCI  19
ENNIS          CLOUDY    34  30  86 SE12      29.70F WCI  25
W YELLOWSTONE  SNOW      32  30  93 SW9       29.73R VSB 1/4 WCI  24
THREE FORKS      N/A     33  32  96 CALM      29.72R
TWIN BRIDGES     N/A     36  27  70 CALM      29.70R
$$

MTZ009-010-012-014-046-048-049-054-191600-
EAST SLOPES AND CENTRAL MONTANA

CITY           SKY/WX    TMP DP  RH WIND       PRES   REMARKS
CUT BANK       FAIR      31  22  69 W23       29.59R WCI  18
GREAT FALLS    CLOUDY    34  28  79 SW8       29.65R WCI  27
MALMSTROM AFB  CLOUDY    37  29  75 SW12      29.66R WCI  29
HELENA         CLOUDY    34  33  96 S5        29.71R
AUGUSTA        MOCLDY    33  24  69 SW12      29.64R WCI  24
BOWMANS CRNR   MOCLDY    31  27  85 S14       29.63S WCI  21
CHOTEAU          N/A     34  21  60 W7        29.65R WCI  28
FAIRFIELD      MOCLDY    34  24  68 W10       29.64R WCI  26
POWER          MOCLDY    33  26  76 SW16      29.63R WCI  23
ULM            CLOUDY    35  29  78 W7        29.66R WCI  30
WHITE SULPHUR    N/A     32  30  93 S9        29.67R FOG     WCI  24
$$

MTZ011-013-016-021-045-047-050-051-191600-
NORTH CENTRAL MONTANA

CITY           SKY/WX    TMP DP  RH WIND       PRES   REMARKS
HAVRE          FAIR      36  30  79 SW16      29.62F WCI  26
LEWISTOWN      CLOUDY    36  32  85 S6        29.62F WCI  31
N BAR RANCH    CLOUDY    34  30  86 CALM      29.65F
CHINOOK          N/A     34  28  80 W3        29.63S
DENTON         CLOUDY    34  32  92 MISG      29.61S
GRASS RANGE    MOCLDY    38  32  79 N8        29.60S WCI  32
STANFORD       CLOUDY    37  28  71 W8        29.61S WCI  30
WINIFRED       MOCLDY    36  33  88 W9        29.63F WCI  29
$$

MTZ017>020-022>027-061-062-191600-
NORTHEAST MONTANA

CITY           SKY/WX    TMP DP  RH WIND       PRES   REMARKS
GLASGOW        FAIR      36  28  73 W12       29.62R WCI  28
GLENDIVE       CLOUDY    36  31  82 W10       29.63R WCI  28
JORDAN           N/A     35  31  85 NW5       29.64R
MALTA          CLEAR     30  28  93 W5        29.62F
SIDNEY         FAIR      38  30  73 W12       29.59S WCI  30
WOLF POINT     FAIR      37  30  75 VRB3      29.61S
PLENTYWOOD       N/A     34  27  75 CALM      29.54S
POPLAR           N/A     36  28  75 W10       29.60R WCI  28
SCOBEY           N/A     33  21  61 W10       29.57R WCI  25
$$

MTZ028>42-056>058-191600-
SOUTHCENTRAL AND SOUTHEAST MONTANA

CITY           SKY/WX    TMP DP  RH WIND       PRES   REMARKS
BAKER          CLOUDY    33  30  88 W15       29.65R WCI  23
BILLINGS       CLOUDY    35  34  96 SW10      29.67F WCI  27
LIVINGSTON     CLOUDY    35  34  96 NW6       29.66R WCI  30
MILES CITY     CLOUDY    33  33 100 SW15      29.67F WCI  23
BIG TIMBER     CLOUDY    34  34 100 NW8G15    29.70R WCI  27
EKALAKA          N/A     30  25  82 W3        29.68R
FORSYTH          N/A     36  36 100 SW6       29.69F WCI  31
HARLOWTON      CLOUDY    34  32  91 SW3       29.64F
LAUREL           N/A     34  34 100 SW7       29.68F WCI  28
$$

REGIONAL REPORTS...DAKOTAS

CITY           SKY/WX    TMP DP  RH WIND       PRES   REMARKS
WILLISTON      CLEAR     37  19  48 W13       29.56F WCI  29
MINOT          MOCLDY    41  29  62 W20       29.49R
DICKINSON      MOCLDY    35  30  82 W13       29.57R WCI  26
BEACH          CLOUDY    36  32  87 W14       29.62F WCI  27
CROSBY         FAIR      36  28  75 W14       29.52F WCI  27
TIOGA          FAIR      36  32  87 W16       29.53F WCI  26
WATFORD CITY   MOCLDY    37  30  75 W14       29.56F WCI  29
BISMARCK       FAIR      21  18  88 S3        29.54F
GRAND FORKS    CLOUDY    31  27  85 SW7       29.44R WCI  24
FARGO          FAIR      27  24  89 SW6       29.49S WCI  20
BUFFALO SD       N/A     32  26  78 NW9       29.58R WCI  24
RAPID CITY     FAIR      39  26  59 N13       29.59R WCI  31
$$

REGIONAL REPORTS...WYOMING/IDAHO/WASHINGTON

CITY           SKY/WX    TMP DP  RH WIND       PRES   REMARKS
GILLETTE       FAIR      33  29  85 NW9       29.70R WCI  25
SHERIDAN       CLOUDY    36  33  89 CALM      29.71F
BUFFALO WY     CLOUDY    35  30  82 N7        29.71S WCI  29
CODY           LGT SNOW  32  30  93 NE3       29.69S FOG
YELLOWSTONE LA   N/A     29  27  92 VRB3      29.73R
IDAHO FALLS    LGT RAIN  35  34  96 S18       29.79S WCI  24
SALMON         CLOUDY    34  33  96 CALM      29.72R
BOISE          CLOUDY    36  34  92 NE10      29.88R WCI  28
SPOKANE        FOG       32  32 100 S10       29.82R VSB 1/2 WCI  24
$$

REGIONAL REPORTS...ALBERTA

CITY           SKY/WX    TMP DP  RH WIND       PRES   REMARKS
CALGARY        PTCLDY    23  10  58 S6        29.52R WCI  16
CARDSTON         N/A     34  21  60 SW16G23     N/A  WCI  23
EDMONTON       CLEAR     28  16  59 W7        29.44S WCI  21
FORT MCMURRAY  CLOUDY    32  28  86 W7        29.31R WCI  26
HIGH LEVEL     FLURRIES  18  14  86 NW9       29.41R WCI   6
LETHBRIDGE     PTCLDY    34  21  60 W21       29.58F WCI  22
LLOYDMINSTER   PTCLDY    27  19  74 W16       29.39R WCI  14
MEDICINE HAT   PTCLDY    28  23  80 SW12      29.57R WCI  18
MILK RIVER       N/A     32  23  69 NW16G28     N/A  WCI  21
PEACE RIVER    MOCLDY    25  21  86 W5        29.41R
PINCHER CREEK  CLEAR     30  21  69 W22G30    29.56R WCI  17
WATERTON GATE    N/A     30  23  74 SW23G35     N/A  WCI  17
$$

REGIONAL REPORTS...SASKATCHEWAN

CITY           SKY/WX    TMP DP  RH WIND       PRES   REMARKS
CORONACH         N/A     32  25  74 W15         N/A  WCI  22
CYPRESS HILLS    N/A     30  14  51 W10G18      N/A  WCI  21
ESTEVAN        MOCLDY    34  27  75 W10       29.50R WCI  26
MOOSE JAW        N/A     30  23  74 W15         N/A  WCI  19
PRINCE ALBERT  LGT SNOW  32  30  93 W9        29.35S WCI  24
REGINA         PTCLDY    25  21  86 W14       29.48R WCI  13
ROCKGLEN         N/A     28  23  80 W13         N/A  WCI  18
SASKATOON      PTCLDY    23  21  93 SW8       29.43R WCI  14
SWIFT CURRENT  CLEAR     28  21  74 W15G24    29.49S WCI  17
VAL MARIE        N/A     27  19  74 W7          N/A  WCI  19
$$




USA.gov is the U.S. government's official web portal to all federal, state and local government web resources and services.